Weather History for Meadow Lake, CO

Change the Weather History Date:

Saturday, January 26, 2013

  Actual Average (KCOS) Record (KCOS)
Temperature  
Mean Temperature 41 °F 30 °F  
Max Temperature 54 °F 43 °F 68 °F (1982)
Min Temperature 28 °F 18 °F -16 °F (1902)
Degree Days  
Heating Degree Days 24 34  
Month to date heating degree days 894  
Since 1 July heating degree days 3466  
Cooling Degree Days 0 0  
Month to date cooling degree days 0  
Year to date cooling degree days 0  
Moisture  
Dew Point 24 °F    
Average Humidity 54    
Maximum Humidity 77    
Minimum Humidity 27    
Precipitation  
Precipitation 0.00 in 0.01 in 0.27 in (2000)
Month to date precipitation 0.26  
Year to date precipitation 0.26  
Snow  
Snow 0.00 in 0.20 in 3.00 in (1946)
Month to date snowfall 4.7  
Since 1 July snowfall 18.2  
Snow Depth -    
Sea Level Pressure  
Sea Level Pressure 29.96 in    
Wind  
Wind Speed 7 mph (WSW)    
Max Wind Speed 15 mph    
Max Gust Speed 18 mph    
Visibility 10 miles    
Events      
T = Trace of Precipitation, MM = Missing Value Source: NWS Daily Summary

Daily Weather History Graph

Daily Weather History Graph

Search for Another Location

Airport:

Trip Planner

Search our weather history database for the weather conditions in past years. The results will help you decide how hot, cold, wet, or windy it might be!

Date:

Astronomy

Jan. 26, 2013 Rise Set
Actual Time 7:09 AM MST 5:13 PM MST
Civil Twilight 6:40 AM MST 5:41 PM MST
Nautical Twilight 6:08 AM MST 6:13 PM MST
Astronomical Twilight 5:36 AM MST 6:45 PM MST
Moon 5:09 PM MST (1/26) 6:28 AM MST (1/26)
Length of Visible Light 11h 00m
Length of Day
10h 03m
Full, 100% of the Moon is Illuminated
Jan 26
Full
Jan 26
Full
Feb 3
Last Quarter
Feb 10
New
Feb 17
First Quarter

Hourly Weather History & Observations

Time (MST) Temp. Windchill Dew Point Humidity Pressure Visibility Wind Dir Wind Speed Gust Speed Precip Events Conditions
12:14 AM 35.8 °F 30.1 °F 23.4 °F 61% 30.10 in 10.0 mi NW 6.9 mph - N/A   Clear
12:34 AM 34.7 °F 28.8 °F 24.3 °F 66% 30.10 in 10.0 mi North 6.9 mph - N/A   Clear
12:54 AM 32.0 °F 25.6 °F 23.5 °F 71% 30.10 in 10.0 mi NW 6.9 mph - N/A   Clear
1:14 AM 33.1 °F 26.9 °F 22.5 °F 65% 30.09 in 10.0 mi WNW 6.9 mph - N/A   Clear
1:34 AM 29.1 °F 21.3 °F 22.6 °F 77% 30.09 in 10.0 mi NW 8.1 mph - N/A   Clear
1:54 AM 29.1 °F 23.0 °F 21.7 °F 74% 30.08 in 10.0 mi NW 5.8 mph - N/A   Clear
2:14 AM 29.7 °F 23.7 °F 22.8 °F 76% 30.08 in 10.0 mi NW 5.8 mph - N/A   Clear
2:34 AM 29.3 °F 21.5 °F 22.5 °F 76% 30.08 in 10.0 mi NW 8.1 mph - N/A   Clear
2:54 AM 28.6 °F 20.7 °F 22.3 °F 77% 30.07 in 10.0 mi NW 8.1 mph - N/A   Clear
3:14 AM 29.7 °F 22.0 °F 23.0 °F 76% 30.06 in 10.0 mi NW 8.1 mph - N/A   Clear
3:34 AM 30.2 °F 25.4 °F 22.8 °F 74% 30.05 in 10.0 mi NNW 4.6 mph - N/A   Clear
3:54 AM 30.0 °F 25.2 °F 22.6 °F 74% 30.05 in 10.0 mi NNW 4.6 mph - N/A   Clear
4:14 AM 29.3 °F 21.5 °F 22.5 °F 76% 30.05 in 10.0 mi WNW 8.1 mph - N/A   Clear
4:34 AM 30.7 °F 23.3 °F 23.4 °F 74% 30.05 in 10.0 mi NW 8.1 mph - N/A   Clear
4:54 AM 31.6 °F 25.1 °F 21.7 °F 67% 30.05 in 10.0 mi WNW 6.9 mph - N/A   Clear
5:14 AM 29.3 °F - 21.0 °F 71% 30.05 in 10.0 mi Calm Calm - N/A   Clear
5:34 AM 32.0 °F 27.5 °F 20.7 °F 63% 30.05 in 10.0 mi WNW 4.6 mph - N/A   Clear
5:54 AM 36.7 °F 32.0 °F 21.2 °F 54% 30.04 in 10.0 mi West 5.8 mph - N/A   Clear
6:14 AM 34.5 °F 29.4 °F 21.2 °F 58% 30.05 in 10.0 mi WNW 5.8 mph - N/A   Clear
6:34 AM 34.2 °F 27.5 °F 22.1 °F 61% 30.04 in 10.0 mi WNW 8.1 mph - N/A   Clear
6:54 AM 35.8 °F 27.8 °F 21.6 °F 56% 30.04 in 10.0 mi NW 11.5 mph - N/A   Clear
7:14 AM 37.2 °F 30.6 °F 21.2 °F 52% 30.04 in 10.0 mi West 9.2 mph - N/A   Clear
7:34 AM 36.0 °F 29.6 °F 21.2 °F 55% 30.04 in 10.0 mi West 8.1 mph - N/A   Clear
7:54 AM 36.3 °F 30.1 °F 21.9 °F 56% 30.05 in 10.0 mi WNW 8.1 mph - N/A   Clear
8:14 AM 39.4 °F 33.8 °F 23.9 °F 54% 30.04 in 10.0 mi WNW 8.1 mph - N/A   Clear
8:34 AM 41.2 °F 36.6 °F 24.4 °F 51% 30.04 in 10.0 mi WNW 6.9 mph - N/A   Clear
8:54 AM 43.7 °F 40.3 °F 24.4 °F 47% 30.04 in 10.0 mi West 5.8 mph - N/A   Clear
9:14 AM 48.2 °F - 23.7 °F 38% 30.04 in 10.0 mi West 5.8 mph - N/A   Clear
9:34 AM 48.7 °F - 23.4 °F 37% 30.05 in 10.0 mi West 6.9 mph - N/A   Clear
9:54 AM 49.1 °F - 22.1 °F 35% 30.05 in 10.0 mi SSW 3.5 mph - N/A   Scattered Clouds
10:14 AM 50.0 °F - 21.4 °F 32% 30.04 in 10.0 mi SSE 3.5 mph - N/A   Mostly Cloudy
10:34 AM 50.0 °F - 21.0 °F 32% 30.04 in 10.0 mi SSW 4.6 mph - N/A   Overcast
10:54 AM 50.2 °F - 20.8 °F 32% 30.04 in 10.0 mi South 5.8 mph - N/A   Overcast
11:14 AM 50.5 °F - 21.0 °F 31% 30.02 in 10.0 mi SSW 5.8 mph - N/A   Overcast
11:34 AM 50.5 °F - 21.2 °F 32% 30.01 in 10.0 mi South 8.1 mph - N/A   Overcast
11:54 AM 51.1 °F - 20.8 °F 31% 30.00 in 10.0 mi East 9.2 mph - N/A   Mostly Cloudy
12:14 PM 51.3 °F - 20.5 °F 30% 29.98 in 10.0 mi SE 8.1 mph - N/A   Mostly Cloudy
12:34 PM 51.8 °F - 20.8 °F 30% 29.97 in 10.0 mi East 8.1 mph - N/A   Scattered Clouds
12:54 PM 51.4 °F - 21.0 °F 30% 29.96 in 10.0 mi ESE 10.4 mph - N/A   Overcast
1:14 PM 51.1 °F - 21.0 °F 31% 29.94 in 10.0 mi ESE 12.7 mph - N/A   Overcast
1:34 PM 54.1 °F - 21.0 °F 27% 29.93 in 10.0 mi SE 8.1 mph 16.1 mph N/A   Overcast
1:54 PM 53.6 °F - 21.7 °F 29% 29.92 in 10.0 mi South 12.7 mph - N/A   Overcast
2:14 PM 52.0 °F - 22.1 °F 31% 29.92 in 10.0 mi South 11.5 mph 17.3 mph N/A   Overcast
2:34 PM 50.9 °F - 22.1 °F 32% 29.92 in 10.0 mi South 11.5 mph - N/A   Overcast
2:54 PM 50.5 °F - 22.8 °F 34% 29.91 in 10.0 mi South 11.5 mph - N/A   Overcast
3:14 PM 50.9 °F - 23.7 °F 35% 29.90 in 10.0 mi South 11.5 mph - N/A   Overcast
3:34 PM 50.9 °F - 23.5 °F 34% 29.90 in 10.0 mi South 12.7 mph - N/A   Overcast
3:54 PM 50.0 °F - 23.9 °F 36% 29.89 in 10.0 mi South 13.8 mph - N/A   Mostly Cloudy
4:14 PM 48.6 °F - 24.4 °F 39% 29.89 in 10.0 mi South 15.0 mph 18.4 mph N/A   Scattered Clouds
4:34 PM 47.7 °F - 24.6 °F 41% 29.88 in 10.0 mi South 12.7 mph - N/A   Mostly Cloudy
4:54 PM 46.6 °F - 24.4 °F 42% 29.88 in 10.0 mi South 9.2 mph - N/A   Overcast
5:14 PM 45.3 °F 40.6 °F 24.4 °F 44% 29.88 in 10.0 mi South 9.2 mph - N/A   Overcast
5:34 PM 44.6 °F 41.4 °F 24.4 °F 45% 29.88 in 10.0 mi South 5.8 mph - N/A   Overcast
5:54 PM 44.6 °F 41.4 °F 24.4 °F 45% 29.88 in 10.0 mi SW 5.8 mph - N/A   Overcast
6:14 PM 44.2 °F 42.7 °F 24.6 °F 46% 29.88 in 10.0 mi WSW 3.5 mph - N/A   Overcast
6:34 PM 43.7 °F 39.7 °F 27.7 °F 53% 29.88 in 10.0 mi SW 6.9 mph - N/A   Drizzle
6:54 PM 43.7 °F 41.1 °F 29.7 °F 58% 29.86 in 10.0 mi SW 4.6 mph - N/A   Light Drizzle
7:14 PM 42.8 °F 38.6 °F 28.4 °F 57% 29.86 in 10.0 mi ESE 6.9 mph - N/A   Overcast
7:34 PM 40.6 °F 36.7 °F 28.4 °F 62% 29.86 in 10.0 mi South 5.8 mph - N/A   Overcast
7:54 PM 40.3 °F - 28.9 °F 64% 29.85 in 10.0 mi Calm Calm - N/A   Overcast
8:14 PM 40.1 °F - 28.6 °F 63% 29.84 in 10.0 mi Calm Calm - N/A   Overcast
8:34 PM 38.7 °F - 28.8 °F 68% 29.83 in 10.0 mi Calm Calm - N/A   Overcast
8:54 PM 38.5 °F - 28.6 °F 68% 29.83 in 10.0 mi Calm Calm - N/A   Overcast
9:14 PM 37.4 °F 33.8 °F 28.0 °F 69% 29.82 in 10.0 mi NW 4.6 mph - N/A   Overcast
9:34 PM 37.6 °F 33.1 °F 28.2 °F 69% 29.81 in 10.0 mi WNW 5.8 mph - N/A   Overcast
9:54 PM 37.4 °F - 28.4 °F 70% 29.80 in 10.0 mi Calm Calm - N/A   Scattered Clouds
10:14 PM 34.9 °F 30.8 °F 26.4 °F 71% 29.80 in 10.0 mi WNW 4.6 mph - N/A   Clear
10:34 PM 31.8 °F 26.2 °F 25.0 °F 76% 29.80 in 10.0 mi WNW 5.8 mph - N/A   Clear
10:54 PM 33.6 °F 28.4 °F 27.1 °F 77% 29.78 in 10.0 mi South 5.8 mph - N/A   Clear
11:14 PM 33.4 °F 28.1 °F 26.1 °F 74% 29.77 in 10.0 mi WNW 5.8 mph - N/A   Clear
11:34 PM 33.1 °F 27.7 °F 26.6 °F 77% 29.76 in 10.0 mi North 5.8 mph - N/A   Clear
11:54 PM 33.1 °F 27.7 °F 26.4 °F 77% 29.75 in 10.0 mi NNW 5.8 mph - N/A   Clear